Airfield :
LOGIN :

Register | Disclaimer

   EN    FR    IT 

 










Legend :    VFR   Marginal VFR   IFR   Intensive IFR   Very Intensive IFR
Visi :
Ceiling :
>= 8 km
>= 3000ft
5 to 8 km
1000 to 3000 ft
1500m to 5 km
500 to 1000 ft
800 to 1500m
200 to 500 ft
< 800m
< 200 ft
Symbols :   Thunderstorms  Fog  Heavy snow  Heavy precipitations  Wind > 20 kt
SIGMETs :     Misc.  Thunderstorms  Icing  Turbulence  Mountain Waves  Volcanic Ashes






- Airport Elevation : 106 ft
- IATA code : NRN


EDLV - Weeze

CURRENT METAR :
  • 172250Z 24008KT CAVOK 05/01 Q1019

EXPIRED METARs :
  • 172220Z 25011KT CAVOK 06/02 Q1019
  • 172150Z 25012KT 9999 BKN031 07/02 Q1018

TAF TAF EDLV
Valid from the 17 at 18:00 until the 18 at 18:00 UTC


171700Z 1718/1818 23009KT 9999 SCT040
PROB30
TEMPO 1803/1809 BKN007
PROB30
TEMPO 1813/1818 26014KT SHRAGS BKN013CB



MET'MAP, your aeronautical weather chart ! - Copyright ORBIFLY December 2007 - Disclaimer

ORBIFLY MET'MAP TEAM :

Programming & Development : Alexandra Zaïnal
Concept & original design : Baudouin d'Aumeries
Assistance for programming : Marc-Olivier Méhu
Technical & hardware support : Manuel Goepfert

Contact : metmap@orbifly.com




SOURCES & CREDITS :

   NOAA